WB4FAY-4 Weather Reports


Display with metric or nautical units.
time (UTC)temp
F
wind
direction
speed
MPH
gust
MPH
rain 1hr
in
rain 24hr
in
rain mn
in
humidity
%
barometer
mb
20180525010617 72 0 0.0 0.0 0.00 0.58 0.34 84 1016.6
20180525010117 73 0 0.0 0.0 0.00 0.58 0.34 84 1016.6
20180525005617 72 0 0.0 0.0 0.00 0.58 0.34 84 1016.6
20180525005117 73 0 0.0 0.0 0.00 0.58 0.34 83 1016.6
20180525004617 72 0 0.0 0.0 0.00 0.58 0.34 83 1016.6
20180525004117 72 0 0.0 0.0 0.00 0.58 0.34 82 1016.5
20180525003617 72 0 0.0 0.0 0.00 0.58 0.34 82 1016.6
20180525003117 72 0 0.0 0.0 0.00 0.58 0.34 82 1016.5
20180525002617 73 0 0.0 0.0 0.00 0.58 0.34 82 1016.6
20180525002117 73 0 0.0 0.0 0.00 0.58 0.34 82 1016.7
20180525001617 73 0 0.0 0.0 0.00 0.58 0.34 82 1016.8
20180525001117 73 0 0.0 0.0 0.00 0.58 0.34 82 1016.8
20180525000619 73 0 0.0 0.0 0.00 0.58 0.34 82 1016.8
20180525000117 73 0 0.0 0.0 0.00 0.58 0.34 82 1016.8
20180524235617 73 0 0.0 0.0 0.00 0.58 0.34 82 1016.8
20180524235117 73 143 0.0 2.0 0.00 0.58 0.34 82 1016.8
20180524234117 73 267 0.0 2.0 0.00 0.58 0.34 83 1016.8
20180524233617 73 264 2.0 2.0 0.00 0.58 0.34 84 1016.8
20180524233117 73 220 0.0 3.0 0.00 0.58 0.34 84 1016.8
20180524232617 74 130 0.0 2.0 0.00 0.58 0.34 84 1017.0
20180524232117 74 311 0.0 2.0 0.00 0.58 0.34 84 1017.0
20180524231617 74 0 0.0 0.0 0.00 0.58 0.34 84 1017.0
20180524230617 74 0 0.0 0.0 0.00 0.58 0.34 83 1017.1
20180524230117 74 253 0.0 0.0 0.00 0.58 0.34 83 1017.1
20180524225617 74 0 0.0 0.0 0.00 0.58 0.34 83 1017.2
20180524225117 74 0 0.0 0.0 0.00 0.58 0.34 83 1017.3
20180524224617 74 224 0.0 1.0 0.00 0.58 0.34 82 1017.4
20180524224117 74 198 1.0 4.0 0.00 0.58 0.34 82 1017.4
20180524223618 74 277 2.0 2.0 0.00 0.58 0.34 83 1017.4
20180524223117 74 246 1.0 1.0 0.00 0.58 0.34 82 1017.5
20180524222617 74 202 0.0 1.0 0.00 0.58 0.34 81 1017.5
20180524222117 74 219 0.0 2.0 0.00 0.58 0.34 81 1017.6
20180524221617 74 229 0.0 1.0 0.00 0.58 0.34 82 1017.5
20180524221117 74 0 0.0 0.0 0.00 0.58 0.34 82 1017.5
20180524220617 74 217 0.0 1.0 0.00 0.58 0.34 83 1017.6
20180524220117 74 198 0.0 3.0 0.00 0.58 0.34 83 1017.7
20180524215617 74 240 1.0 1.0 0.00 0.58 0.34 83 1017.7
20180524215117 74 208 0.0 2.0 0.00 0.58 0.34 82 1017.6
20180524214117 74 195 2.0 0.0 0.00 0.58 0.34 82 1017.6
20180524213617 74 200 0.0 3.0 0.00 0.58 0.34 82 1017.5
20180524213117 74 196 1.0 5.0 0.00 0.58 0.34 82 1017.4
20180524212617 74 296 0.0 1.0 0.00 0.58 0.34 84 1017.3
20180524212117 75 306 0.0 1.0 0.00 0.58 0.34 83 1017.2
20180524211617 75 260 0.0 2.0 0.00 0.58 0.34 83 1017.1
20180524210617 75 205 2.0 7.0 0.00 0.58 0.34 84 1017.2
20180524210117 75 227 2.0 1.0 0.00 0.58 0.34 85 1017.1
20180524205117 75 198 0.0 3.0 0.00 0.58 0.34 86 1017.3
20180524204617 75 337 1.0 1.0 0.00 0.58 0.34 86 1017.3
20180524204117 75 219 0.0 2.0 0.00 0.58 0.34 86 1017.3
20180524203617 76 203 2.0 3.0 0.00 0.58 0.34 87 1017.4
20180524203117 76 0 0.0 0.0 0.00 0.58 0.34 87 1017.3
20180524202617 76 0 0.0 0.0 0.00 0.58 0.34 87 1017.2
20180524202117 76 0 0.0 0.0 0.00 0.58 0.34 87 1017.3
20180524201617 75 0 0.0 0.0 0.00 0.58 0.34 87 1017.3
20180524201117 75 0 0.0 0.0 0.00 0.58 0.34 87 1017.3
20180524200117 75 0 0.0 0.0 0.00 0.58 0.34 87 1017.5
20180524195117 76 0 0.0 0.0 0.00 0.58 0.34 87 1017.6
20180524194616 76 0 0.0 0.0 0.00 0.58 0.34 87 1017.7
20180524194117 76 0 0.0 0.0 0.00 0.58 0.34 87 1017.8
20180524193617 76 0 0.0 0.0 0.00 0.58 0.34 87 1017.9
20180524193117 76 0 0.0 0.0 0.00 0.58 0.33 87 1018.0
20180524192617 76 0 0.0 0.0 0.00 0.58 0.33 86 1018.1
20180524192117 75 0 0.0 0.0 0.00 0.58 0.33 86 1018.3
20180524191617 75 0 0.0 0.0 0.00 0.58 0.33 86 1018.3
20180524191117 75 0 0.0 0.0 0.00 0.58 0.33 86 1018.3
20180524190617 75 0 0.0 0.0 0.00 0.58 0.33 86 1018.3
20180524190117 75 0 0.0 0.0 0.00 0.58 0.33 86 1018.3
20180524185617 75 56 0.0 3.0 0.00 0.58 0.33 86 1018.3
20180524185117 75 73 1.0 3.0 0.00 0.58 0.33 87 1018.3
20180524184616 75 6 0.0 1.0 0.00 0.58 0.33 87 1018.2
20180524184117 75 340 0.0 1.0 0.00 0.58 0.33 87 1018.3
20180524183617 75 337 0.0 1.0 0.00 0.58 0.33 87 1018.3
20180524183117 75 344 0.0 3.0 0.00 0.58 0.33 87 1018.4
20180524182117 74 102 0.0 2.0 0.00 0.58 0.33 87 1018.6
20180524181117 73 195 0.0 2.0 0.00 0.58 0.33 86 1018.6
20180524180617 73 193 0.0 3.0 0.00 0.58 0.33 86 1018.5
20180524180118 73 0 0.0 0.0 0.00 0.58 0.33 85 1018.4
20180524175617 73 299 0.0 3.0 0.00 0.58 0.33 84 1018.4
20180524175117 74 292 1.0 2.0 0.00 0.58 0.33 84 1018.6
20180524174617 74 333 1.0 3.0 0.00 0.58 0.33 83 1018.7
20180524174117 74 253 0.0 2.0 0.00 0.58 0.32 82 1018.8
20180524173617 75 299 1.0 2.0 0.00 0.58 0.30 79 1018.9
20180524173117 77 85 1.0 6.0 0.00 0.58 0.26 71 1019.0
20180524172617 78 10 1.0 11.0 0.00 0.58 0.18 66 1019.1
20180524172117 80 41 1.0 4.0 0.00 0.58 0.01 68 1018.8
20180524171117 81 335 2.0 6.0 0.00 0.58 0.00 63 1018.7
20180524170617 83 335 3.0 6.0 0.00 0.58 0.00 60 1018.7
20180524170117 84 308 0.0 4.0 0.00 0.58 0.00 57 1018.7
20180524165617 85 209 2.0 5.0 0.00 0.58 0.00 54 1018.7
20180524165117 87 144 5.0 4.0 0.00 0.58 0.00 51 1018.7
20180524164617 87 226 0.0 2.0 0.00 0.58 0.00 51 1018.6
20180524164117 88 347 0.0 4.0 0.00 0.58 0.00 48 1018.7
20180524163617 88 7 2.0 9.0 0.00 0.58 0.00 46 1018.7
20180524162617 88 86 2.0 6.0 0.00 0.58 0.00 47 1018.8
20180524162117 88 59 3.0 8.0 0.00 0.58 0.00 48 1018.9
20180524161117 87 48 3.0 5.0 0.00 0.58 0.00 51 1019.1
20180524155617 85 44 2.0 3.0 0.00 0.58 0.00 56 1019.3
20180524155117 85 346 1.0 2.0 0.00 0.58 0.00 57 1019.3
20180524154617 85 103 0.0 3.0 0.00 0.58 0.00 55 1019.4
20180524153617 85 55 3.0 3.0 0.00 0.58 0.00 58 1019.5
20180524152617 84 80 1.0 5.0 0.00 0.58 0.00 58 1019.5
20180524152117 84 59 2.0 5.0 0.00 0.58 0.00 59 1019.5
20180524151617 84 42 1.0 4.0 0.00 0.58 0.00 57 1019.4
20180524150617 83 55 1.0 4.0 0.00 0.58 0.00 61 1019.4
20180524150117 82 124 2.0 3.0 0.00 0.58 0.00 61 1019.4
20180524145617 81 92 1.0 3.0 0.00 0.58 0.00 64 1019.4
20180524144617 81 188 2.0 4.0 0.00 0.58 0.00 66 1019.6
20180524144117 81 360 2.0 5.0 0.00 0.58 0.00 66 1019.6
20180524143617 80 13 2.0 4.0 0.00 0.58 0.00 67 1019.6
20180524143117 81 83 1.0 4.0 0.00 0.58 0.00 68 1019.6
20180524142118 80 78 1.0 5.0 0.00 0.58 0.00 71 1019.7
20180524141617 80 66 2.0 3.0 0.00 0.58 0.00 72 1019.7
20180524141117 79 49 2.0 3.0 0.00 0.58 0.00 74 1019.7
20180524140617 79 38 1.0 5.0 0.00 0.58 0.00 75 1019.8
20180524140117 78 21 2.0 5.0 0.00 0.58 0.00 76 1019.7
20180524135117 77 4 3.0 4.0 0.00 0.58 0.00 82 1019.7
20180524134617 76 68 2.0 6.0 0.00 0.58 0.00 84 1019.6
20180524134117 76 89 4.0 3.0 0.00 0.58 0.00 87 1019.7
20180524133617 75 1 2.0 3.0 0.00 0.58 0.00 88 1019.6
20180524132617 75 0 3.0 0.0 0.00 0.58 0.00 89 1019.6
20180524132117 74 0 0.0 0.0 0.00 0.58 0.00 90 1019.6
20180524131618 74 0 0.0 0.0 0.00 0.58 0.00 90 1019.5
20180524131117 74 0 0.0 0.0 0.00 0.58 0.00 90 1019.5
20180524130617 73 0 0.0 0.0 0.00 0.58 0.00 90 1019.4
20180524130117 73 0 0.0 0.0 0.00 0.58 0.00 90 1019.4
20180524125617 73 102 0.0 1.0 0.00 0.58 0.00 90 1019.4
20180524123617 73 0 0.0 0.0 0.00 0.58 0.00 90 1019.1
20180524123117 73 0 0.0 0.0 0.00 0.58 0.00 90 1019.1
20180524122617 72 0 0.0 0.0 0.00 0.58 0.00 90 1019.0
20180524122117 72 0 0.0 0.0 0.00 0.58 0.00 90 1019.0
20180524121617 72 0 0.0 0.0 0.00 0.58 0.00 91 1018.9
20180524121117 72 0 0.0 0.0 0.00 0.58 0.00 91 1018.9
20180524115617 71 0 0.0 0.0 0.00 0.58 0.00 91 1018.9
20180524114617 71 0 0.0 0.0 0.00 0.58 0.00 91 1018.8
20180524114117 70 0 0.0 0.0 0.00 0.58 0.00 91 1018.8
20180524113617 70 0 0.0 0.0 0.00 0.58 0.00 91 1018.8
20180524113117 70 0 0.0 0.0 0.00 0.58 0.00 91 1018.7
20180524112118 70 0 0.0 0.0 0.00 0.58 0.00 91 1018.7
20180524111117 70 0 0.0 0.0 0.00 0.58 0.00 90 1018.6
20180524110617 70 0 0.0 0.0 0.00 0.58 0.00 90 1018.5
20180524110117 69 0 0.0 0.0 0.00 0.58 0.00 90 1018.5
20180524105616 69 0 0.0 0.0 0.00 0.58 0.00 90 1018.5
20180524105117 69 0 0.0 0.0 0.00 0.58 0.00 90 1018.3
20180524104617 69 0 0.0 0.0 0.00 0.58 0.00 90 1018.3
20180524104117 69 0 0.0 0.0 0.00 0.58 0.00 90 1018.3
20180524103617 70 0 0.0 0.0 0.00 0.58 0.00 90 1018.3
20180524103117 70 0 0.0 0.0 0.00 0.58 0.00 90 1018.2
20180524102617 70 0 0.0 0.0 0.00 0.58 0.00 90 1018.1
20180524102117 70 0 0.0 0.0 0.00 0.58 0.00 90 1018.0
20180524101617 70 0 0.0 0.0 0.00 0.58 0.00 90 1018.0
20180524101117 69 0 0.0 0.0 0.00 0.58 0.00 90 1018.1
20180524100617 69 0 0.0 0.0 0.00 0.58 0.00 90 1018.1
20180524100117 70 0 0.0 0.0 0.00 0.58 0.00 90 1018.0
20180524095617 70 0 0.0 0.0 0.00 0.58 0.00 90 1018.0
20180524094616 70 0 0.0 0.0 0.00 0.58 0.00 90 1018.0
20180524094117 70 0 0.0 0.0 0.00 0.58 0.00 90 1017.9
20180524093617 70 0 0.0 0.0 0.00 0.58 0.00 90 1017.9
20180524093117 70 0 0.0 0.0 0.00 0.58 0.00 90 1017.8
20180524092617 70 0 0.0 0.0 0.00 0.58 0.00 90 1017.8
20180524092117 70 0 0.0 0.0 0.00 0.58 0.00 90 1017.8
20180524091617 70 0 0.0 0.0 0.00 0.58 0.00 90 1017.9
20180524091117 70 0 0.0 0.0 0.00 0.58 0.00 90 1017.9
20180524090617 70 0 0.0 0.0 0.00 0.58 0.00 90 1017.9
20180524085617 70 0 0.0 0.0 0.00 0.58 0.00 90 1017.7
20180524084617 70 0 0.0 0.0 0.00 0.58 0.00 90 1017.6
20180524084117 70 0 0.0 0.0 0.00 0.58 0.00 90 1017.5
20180524083617 70 0 0.0 0.0 0.00 0.58 0.00 90 1017.5
20180524083117 70 0 0.0 0.0 0.00 0.58 0.00 90 1017.4
20180524081617 70 0 0.0 0.0 0.00 0.58 0.00 90 1017.6
20180524081117 70 0 0.0 0.0 0.00 0.58 0.00 90 1017.5
20180524080617 70 0 0.0 0.0 0.00 0.58 0.00 90 1017.5
20180524080117 70 0 0.0 0.0 0.00 0.58 0.00 90 1017.5
20180524075617 71 0 0.0 0.0 0.00 0.58 0.00 90 1017.6
20180524075117 71 0 0.0 0.0 0.00 0.58 0.00 89 1017.7
20180524074617 70 0 0.0 0.0 0.00 0.58 0.00 89 1017.6
20180524074117 71 0 0.0 0.0 0.00 0.58 0.00 89 1017.6
20180524073617 71 0 0.0 0.0 0.00 0.58 0.00 89 1017.7
20180524073117 71 0 0.0 0.0 0.00 0.58 0.00 89 1017.7
20180524072617 71 0 0.0 0.0 0.00 0.58 0.00 89 1017.8
20180524072117 71 0 0.0 0.0 0.00 0.58 0.00 89 1017.9
20180524071617 71 0 0.0 0.0 0.00 0.58 0.00 89 1017.9
20180524071117 71 0 0.0 0.0 0.00 0.58 0.00 89 1017.8
20180524070617 71 0 0.0 0.0 0.00 0.58 0.00 89 1017.9
20180524070116 71 0 0.0 0.0 0.00 0.58 0.00 89 1017.9
20180524065618 71 0 0.0 0.0 0.00 0.58 0.00 89 1018.0
20180524065117 71 0 0.0 0.0 0.00 0.58 0.00 89 1018.0
20180524064617 71 0 0.0 0.0 0.00 0.58 0.00 89 1018.1
20180524063617 71 0 0.0 0.0 0.00 0.58 0.00 89 1018.0
20180524062617 71 0 0.0 0.0 0.00 0.58 0.00 89 1018.1
20180524062117 71 0 0.0 0.0 0.00 0.58 0.00 89 1018.2
20180524061617 71 0 0.0 0.0 0.00 0.58 0.00 89 1018.1
20180524061117 71 0 0.0 0.0 0.00 0.58 0.00 89 1018.2
20180524060616 71 0 0.0 0.0 0.00 0.58 0.00 89 1018.2
20180524055117 71 0 0.0 0.0 0.00 0.58 0.00 89 1018.3
20180524054617 72 0 0.0 0.0 0.00 0.58 0.00 89 1018.4
20180524054116 72 0 0.0 0.0 0.00 0.58 0.00 89 1018.4
20180524053617 72 0 0.0 0.0 0.00 0.58 0.00 89 1018.4
20180524053117 72 0 0.0 0.0 0.00 0.58 0.00 89 1018.5
20180524052617 72 0 0.0 0.0 0.00 0.58 0.00 88 1018.5
20180524052117 72 0 0.0 0.0 0.00 0.58 0.00 88 1018.5
20180524051617 72 0 0.0 0.0 0.00 0.58 0.00 88 1018.6
20180524051117 72 0 0.0 0.0 0.00 0.58 0.00 88 1018.7
20180524050117 72 0 0.0 0.0 0.00 0.58 0.00 88 1018.7
20180524045617 72 0 0.0 0.0 0.00 0.17 0.58 88 1018.8
20180524045117 72 0 0.0 0.0 0.00 0.17 0.58 88 1018.8
20180524044617 72 0 0.0 0.0 0.00 0.17 0.58 88 1018.9
20180524044117 72 0 0.0 0.0 0.00 0.17 0.58 88 1018.8
20180524043617 73 0 0.0 0.0 0.00 0.17 0.58 87 1018.9
20180524043117 72 0 0.0 0.0 0.00 0.17 0.58 87 1018.9
20180524042618 73 0 0.0 0.0 0.00 0.17 0.58 87 1018.9
20180524042117 73 0 0.0 0.0 0.00 0.17 0.58 87 1018.9
20180524041617 73 0 0.0 0.0 0.00 0.17 0.58 87 1019.0
20180524041117 73 0 0.0 0.0 0.00 0.17 0.58 87 1019.1
20180524040117 73 0 0.0 0.0 0.00 0.17 0.58 87 1019.1
20180524035617 73 0 0.0 0.0 0.00 0.17 0.58 87 1019.3
20180524035117 73 0 0.0 0.0 0.00 0.17 0.58 87 1019.3
20180524034617 73 0 0.0 0.0 0.00 0.17 0.58 86 1019.3
20180524034117 73 0 0.0 0.0 0.00 0.17 0.58 86 1019.3
20180524033617 73 0 0.0 0.0 0.00 0.17 0.58 86 1019.1
20180524033116 74 0 0.0 0.0 0.00 0.17 0.58 86 1019.0
20180524032117 74 0 0.0 0.0 0.00 0.17 0.58 85 1019.0
20180524031617 74 0 0.0 0.0 0.00 0.17 0.58 85 1019.1
20180524031117 74 0 0.0 0.0 0.00 0.17 0.58 85 1019.3
20180524030617 74 0 0.0 0.0 0.00 0.17 0.58 85 1019.3
20180524030117 74 0 0.0 0.0 0.00 0.17 0.58 85 1019.3
20180524025117 74 0 0.0 0.0 0.00 0.17 0.58 85 1019.1
20180524024617 74 0 0.0 0.0 0.00 0.17 0.58 85 1019.1
20180524024117 74 0 0.0 0.0 0.00 0.17 0.58 86 1019.1
20180524023617 74 0 0.0 0.0 0.00 0.17 0.58 86 1019.1
20180524023116 74 199 0.0 1.0 0.00 0.17 0.58 86 1019.0
20180524022617 74 193 0.0 1.0 0.00 0.17 0.58 86 1018.8
20180524022117 74 258 1.0 2.0 0.00 0.17 0.58 86 1018.8
20180524021617 74 189 0.0 1.0 0.00 0.17 0.58 86 1018.7
20180524021117 74 0 0.0 0.0 0.00 0.17 0.58 86 1018.6
20180524020117 74 0 0.0 0.0 0.00 0.17 0.58 86 1018.4
20180524015617 75 0 0.0 0.0 0.00 0.17 0.58 85 1018.4
20180524015117 75 0 0.0 0.0 0.00 0.17 0.58 85 1018.3
20180524014617 75 0 0.0 0.0 0.00 0.17 0.58 85 1018.2
20180524014117 75 0 0.0 0.0 0.00 0.17 0.58 85 1018.1
20180524013617 75 0 0.0 0.0 0.00 0.17 0.58 85 1018.1
20180524013117 75 0 0.0 0.0 0.00 0.17 0.58 85 1018.0
20180524012617 75 0 0.0 0.0 0.00 0.17 0.58 85 1017.9
20180524012117 75 192 0.0 1.0 0.00 0.17 0.58 85 1017.8
20180524011617 75 0 0.0 0.0 0.00 0.17 0.58 85 1017.8
20180524011117 75 0 0.0 0.0 0.00 0.17 0.58 85 1017.7